Location: Ajisawe
(8.4333°N, 4.3833°E)
Time: 14:18:25
(UTC+00:00)

Courier 1B Rocket - Pass Details

Date: 30 April 2021
Orbit: 920 x 1202 km, 28.2° (Epoch: 07 May)

Event Time Altitude Azimuth Distance (km) Brightness Sun altitude
Rises 16:15:43 0° 303° (WNW) 3,549 9.1 22.3°
Reaches altitude 10° 16:20:25 10° 335° (NNW) 2,600 7.9 21.2°
Maximum altitude 16:22:32 12° 355° (N) 2,479 7.5 20.7°
Drops below altitude 10° 16:24:41 10° 15° (NNE) 2,613 7.3 20.2°
Sets 16:29:26 0° 47° (NE) 3,592 7.6 19.0°
